Date String (YYYY-MM-DD hh:mm:ss) UTC,Instrument flags,absolute air pressure of the measurement (hPa),sample flow rate (lpm),inlet stack bypass flow (lpm),air temperature of the measurement (°C),ambient temperature measured by the external sensor (°C),aerosol sample conditioner tube jacket temperature (°C),OPC LED temperature (°C),internal box temperature (°C),relative humidity of the measurement (%),span deviation,mass concentration of particles derived from Lorenz-Mie calculation of OPC scattering (μg/m³),mass concentration of particles derived from Lorenz-Mie calculation of OPC scattering (μg/m³),mass concentration of particles derived from Lorenz-Mie calculation of OPC scattering (μg/m³)
DateTimeUTC,F1_M11,P_M11,Q1_M11,Q2_M11,T1_M11,T2_M11,T3_M11,T4_M11,T5_M11,U1_M11,ZSPAN_M11,X2_M11,X0_M11,X1_M11
2024-04-09 23:00:00,SystemResetWarning,0825.6,5.00,000.00,026.3,025.6,000.0,034.6,028.1,010.6,0001.3,0005.91,0016.12,0004.92
2024-04-09 23:01:00,SystemResetWarning,0825.6,4.99,000.00,026.3,025.6,000.0,034.6,028.1,010.6,0001.3,0005.93,0016.99,0004.94
2024-04-09 23:02:00,SystemResetWarning,0825.6,5.00,000.00,026.3,025.6,000.0,034.6,028.1,010.5,0000.0,0005.95,0017.98,0004.95
2024-04-09 23:03:00,SystemResetWarning,0825.6,5.00,000.00,026.3,025.6,000.0,034.6,028.1,010.6,0000.0,0005.98,0018.25,0004.98
2024-04-09 23:04:00,SystemResetWarning,0825.6,5.00,000.00,026.3,025.7,000.0,034.6,028.1,010.5,0000.0,0005.96,0017.94,0005.00
2024-04-09 23:05:00,SystemResetWarning,0825.6,4.99,000.00,026.3,025.7,000.0,034.6,028.2,010.4,0000.0,0005.92,0017.44,0005.02
2024-04-09 23:06:00,SystemResetWarning,0825.6,5.00,000.00,026.4,025.7,000.0,034.7,028.2,010.6,0001.1,0005.96,0016.98,0005.03
2024-04-09 23:07:00,SystemResetWarning,0825.7,5.00,000.00,026.4,025.7,000.0,034.7,028.2,010.4,0003.2,0005.95,0016.61,0005.05
2024-04-09 23:08:00,SystemResetWarning,0825.7,5.00,000.00,026.4,025.7,000.0,034.7,028.2,010.4,0000.0,0005.95,0016.95,0005.07
2024-04-09 23:09:00,SystemResetWarning,0825.7,5.00,000.00,026.4,025.8,000.0,034.7,028.2,010.4,0002.1,0005.95,0015.70,0005.08
2024-04-09 23:10:00,SystemResetWarning,0825.6,5.00,000.00,026.4,025.8,000.0,034.7,028.2,010.6,0003.5,0005.98,0016.20,0005.10
2024-04-09 23:11:00,SystemResetWarning,0825.6,5.00,000.00,026.4,025.8,000.0,034.7,028.2,010.5,0003.1,0006.05,0015.98,0005.13
2024-04-09 23:12:00,SystemResetWarning,0825.6,5.00,000.00,026.5,025.8,000.0,034.7,028.3,010.8,0003.2,0006.07,0015.22,0005.15
2024-04-09 23:13:00,SystemResetWarning,0825.6,5.01,000.00,026.5,025.8,000.0,034.8,028.3,010.6,0001.9,0006.10,0013.74,0005.16
2024-04-09 23:14:00,SystemResetWarning,0825.7,5.01,000.00,026.5,025.8,000.0,034.8,028.3,010.5,0001.0,0006.16,0013.66,0005.17
2024-04-09 23:15:00,SystemResetWarning,0825.7,4.99,000.00,026.5,025.8,000.0,034.8,028.3,010.4,-000.1,0006.16,0014.43,0005.18
2024-04-09 23:16:00,SystemResetWarning,0825.7,4.99,000.00,026.5,025.8,000.0,034.8,028.3,010.6,-000.0,0006.23,0014.92,0005.21
2024-04-09 23:17:00,SystemResetWarning,0825.7,5.00,000.00,026.5,025.8,000.0,034.8,028.3,010.3,0000.6,0006.25,0015.39,0005.23
2024-04-09 23:18:00,SystemResetWarning,0825.7,5.01,000.00,026.5,025.9,000.0,034.8,028.3,010.4,-000.2,0006.31,0016.11,0005.25
2024-04-09 23:19:00,SystemResetWarning,0825.7,5.00,000.00,026.5,025.9,000.0,034.9,028.4,010.4,-000.2,0006.34,0016.05,0005.26
2024-04-09 23:20:00,SystemResetWarning,0825.7,5.00,000.00,026.6,025.9,000.0,034.9,028.4,010.5,-000.8,0006.42,0016.09,0005.29
2024-04-09 23:21:00,SystemResetWarning,0825.7,5.01,000.00,026.6,025.9,000.0,034.9,028.4,010.6,-000.0,0006.41,0015.72,0005.30
2024-04-09 23:22:00,SystemResetWarning,0825.7,5.00,000.00,026.6,026.0,000.0,034.9,028.4,010.7,-000.2,0006.38,0015.97,0005.31
2024-04-09 23:23:00,SystemResetWarning,0825.7,4.99,000.00,026.6,026.0,000.0,034.9,028.4,010.5,-000.4,0006.37,0016.63,0005.31
2024-04-09 23:24:00,SystemResetWarning,0825.7,5.00,000.00,026.6,026.0,000.0,034.9,028.4,010.4,-000.3,0006.36,0018.35,0005.32
2024-04-09 23:25:00,SystemResetWarning,0825.7,5.00,000.00,026.6,026.0,000.0,034.9,028.4,010.5,-000.1,0006.32,0019.62,0005.34
2024-04-09 23:26:00,SystemResetWarning,0825.7,5.00,000.00,026.6,026.0,000.0,035.0,028.5,010.5,0002.6,0006.34,0019.47,0005.36
2024-04-09 23:27:00,SystemResetWarning,0825.7,5.00,000.00,026.6,026.0,000.0,035.0,028.5,010.5,0004.0,0006.35,0018.77,0005.35
2024-04-09 23:28:00,SystemResetWarning,0825.7,5.00,000.00,026.7,026.0,000.0,035.0,028.5,010.5,0004.5,0006.29,0018.95,0005.34
2024-04-09 23:29:00,SystemResetWarning,0825.8,5.00,000.00,026.7,026.0,000.0,035.0,028.5,010.6,0004.5,0006.28,0018.58,0005.32
2024-04-09 23:30:00,SystemResetWarning,0825.8,5.00,000.00,026.7,026.0,000.0,035.0,028.5,010.5,0005.1,0006.27,0018.77,0005.32
2024-04-09 23:31:00,SystemResetWarning,0825.8,5.00,000.00,026.7,026.0,000.0,035.0,028.5,010.6,0005.7,0006.27,0019.00,0005.33
2024-04-09 23:32:00,SystemResetWarning,0825.8,5.00,000.00,026.7,026.0,000.0,035.0,028.5,010.5,0005.7,0006.27,0019.45,0005.31
2024-04-09 23:33:00,SystemResetWarning,0825.8,5.00,000.00,026.7,026.1,000.0,035.1,028.5,010.4,0005.4,0006.30,0019.65,0005.31
2024-04-09 23:34:00,SystemResetWarning,0825.8,4.99,000.00,026.7,026.1,000.0,035.1,028.5,010.4,0006.1,0006.35,0019.53,0005.33
2024-04-09 23:35:00,SystemResetWarning,0825.8,5.00,000.00,026.8,026.1,000.0,035.1,028.6,010.5,0007.4,0006.41,0018.64,0005.35
2024-04-09 23:36:00,SystemResetWarning,0825.8,5.01,000.00,026.8,026.1,000.0,035.1,028.6,010.3,0008.5,0006.43,0017.25,0005.36
2024-04-09 23:37:00,SystemResetWarning,0825.8,5.00,000.00,026.8,026.1,000.0,035.1,028.6,010.3,0008.0,0006.57,0017.53,0005.39
2024-04-09 23:38:00,SystemResetWarning,0825.8,5.00,000.00,026.8,026.1,000.0,035.1,028.6,010.2,0003.4,0006.65,0018.28,0005.43
2024-04-09 23:39:00,SystemResetWarning,0825.8,4.99,000.00,026.8,026.1,000.0,035.1,028.6,010.1,0005.7,0006.71,0018.23,0005.47
2024-04-09 23:40:00,SystemResetWarning,0825.8,4.99,000.00,026.8,026.1,000.0,035.2,028.6,010.4,0004.6,0006.75,0019.54,0005.52
2024-04-09 23:41:00,SystemResetWarning,0825.8,5.01,000.00,026.8,026.2,000.0,035.2,028.7,010.4,0005.4,0006.78,0019.01,0005.55
2024-04-09 23:42:00,SystemResetWarning,0825.8,5.01,000.00,026.8,026.2,000.0,035.2,028.7,010.3,0005.0,0006.79,0019.82,0005.56
2024-04-09 23:43:00,SystemResetWarning,0825.8,5.01,000.00,026.9,026.2,000.0,035.2,028.7,010.4,0005.2,0006.78,0020.55,0005.60
2024-04-09 23:44:00,SystemResetWarning,0825.8,5.00,000.00,026.9,026.2,000.0,035.2,028.7,010.4,0005.2,0006.77,0020.49,0005.60
2024-04-09 23:45:00,SystemResetWarning,0825.8,4.99,000.00,026.9,026.2,000.0,035.2,028.7,010.3,0004.7,0006.77,0020.38,0005.61
2024-04-09 23:46:00,SystemResetWarning,0825.7,5.01,000.00,026.9,026.2,000.0,035.2,028.7,010.3,0004.4,0006.78,0020.19,0005.61
2024-04-09 23:47:00,SystemResetWarning,0825.8,5.01,000.00,026.9,026.3,000.0,035.3,028.7,010.3,0004.3,0006.79,0019.85,0005.61
2024-04-09 23:48:00,SystemResetWarning,0825.8,5.00,000.00,026.9,026.3,000.0,035.3,028.7,010.2,0004.6,0006.73,0020.46,0005.61
2024-04-09 23:49:00,SystemResetWarning,0825.8,5.01,000.00,026.9,026.3,000.0,035.3,028.8,010.3,0004.8,0006.65,0019.77,0005.60
2024-04-09 23:50:00,SystemResetWarning,0825.8,5.00,000.00,027.0,026.3,000.0,035.3,028.8,010.4,0004.6,0006.60,0020.33,0005.56
2024-04-09 23:51:00,SystemResetWarning,0825.7,4.99,000.00,027.0,026.3,000.0,035.3,028.8,010.2,0004.4,0006.55,0019.96,0005.53
2024-04-09 23:52:00,SystemResetWarning,0825.8,4.99,000.00,027.0,026.3,000.0,035.3,028.8,010.3,0003.8,0006.57,0020.27,0005.51
2024-04-09 23:53:00,SystemResetWarning,0825.8,5.01,000.00,027.0,026.3,000.0,035.3,028.8,010.3,0003.5,0006.58,0020.56,0005.49
2024-04-09 23:54:00,SystemResetWarning,0825.8,5.00,000.00,027.0,026.4,000.0,035.4,028.8,010.2,0003.5,0006.55,0020.05,0005.47
2024-04-09 23:55:00,SystemResetWarning,0825.8,5.01,000.00,027.0,026.4,000.0,035.4,028.8,010.3,0003.4,0006.53,0020.14,0005.47
2024-04-09 23:56:00,SystemResetWarning,0825.8,5.00,000.00,027.0,026.4,000.0,035.4,028.8,010.2,0003.2,0006.52,0020.18,0005.46
2024-04-09 23:57:00,SystemResetWarning,0825.8,5.00,000.00,027.0,026.4,000.0,035.4,028.8,010.2,0003.8,0006.49,0019.92,0005.45
2024-04-09 23:58:00,SystemResetWarning,0825.8,5.00,000.00,027.1,026.4,000.0,035.4,028.9,010.2,0000.0,0006.46,0019.92,0005.44
2024-04-09 23:59:00,SystemResetWarning,0825.8,5.00,000.00,027.1,026.4,000.0,035.4,028.9,010.4,0004.8,0006.47,0018.83,0005.42
